FW0394 Weather Reports


Display with metric or nautical units.
time (UTC)temp
F
wind
direction
speed
MPH
gust
MPH
rain 1hr
in
rain 24hr
in
rain mn
in
humidity
%
barometer
mb
20260503234503 74 278 2.0 6.0 0.00 0.00 0.00 32 1007.9
20260503234213 74 320 2.0 6.0 0.00 0.00 0.00 32 1007.9
20260503233503 74 284 1.0 4.0 0.00 0.00 0.00 30 1007.9
20260503233004 74 277 1.0 4.0 0.00 0.00 0.00 32 1007.9
20260503232503 74 285 1.0 4.0 0.00 0.00 0.00 31 1007.9
20260503232003 74 269 1.0 4.0 0.00 0.00 0.00 33 1008.0
20260503231508 74 246 1.0 4.0 0.00 0.00 0.00 31 1008.1
20260503231003 75 238 2.0 7.0 0.00 0.00 0.00 29 1008.0
20260503230503 75 252 3.0 9.0 0.00 0.00 0.00 30 1008.1
20260503230004 75 257 3.0 9.0 0.00 0.00 0.00 31 1008.1
20260503225714 75 256 2.0 9.0 0.00 0.00 0.00 32 1008.1
20260503225003 75 279 2.0 8.0 0.00 0.00 0.00 31 1008.1
20260503224503 76 285 2.0 7.0 0.00 0.00 0.00 32 1008.2
20260503224003 76 249 1.0 7.0 0.00 0.00 0.00 31 1008.1
20260503223503 76 239 2.0 7.0 0.00 0.00 0.00 33 1008.1
20260503223003 76 239 2.0 7.0 0.00 0.00 0.00 32 1008.2
20260503222504 76 207 3.0 7.0 0.00 0.00 0.00 30 1008.2
20260503222003 76 206 3.0 8.0 0.00 0.00 0.00 29 1008.2
20260503221713 77 229 3.0 8.0 0.00 0.00 0.00 31 1008.3
20260503221214 77 256 3.0 9.0 0.00 0.00 0.00 29 1008.3
20260503220503 77 263 2.0 7.0 0.00 0.00 0.00 29 1008.3
20260503220003 77 271 2.0 8.0 0.00 0.00 0.00 32 1008.3
20260503215503 77 282 2.0 9.0 0.00 0.00 0.00 32 1008.3
20260503215003 76 282 2.0 9.0 0.00 0.00 0.00 31 1008.4
20260503214503 76 266 2.0 7.0 0.00 0.00 0.00 30 1008.7
20260503214003 76 280 2.0 7.0 0.00 0.00 0.00 33 1008.7
20260503213503 76 278 2.0 7.0 0.00 0.00 0.00 31 1008.8
20260503213214 76 278 2.0 7.0 0.00 0.00 0.00 30 1008.7
20260503212504 75 328 2.0 7.0 0.00 0.00 0.00 32 1008.9
20260503212003 75 277 3.0 7.0 0.00 0.00 0.00 32 1008.8
20260503211713 76 268 3.0 7.0 0.00 0.00 0.00 35 1008.9
20260503211003 76 264 4.0 10.0 0.00 0.00 0.00 29 1009.1
20260503210503 76 269 4.0 10.0 0.00 0.00 0.00 30 1009.1
20260503210004 76 278 3.0 9.0 0.00 0.00 0.00 30 1009.3
20260503205503 76 281 2.0 8.0 0.00 0.00 0.00 32 1009.2
20260503205003 76 236 3.0 8.0 0.00 0.00 0.00 33 1009.3
20260503204503 76 201 2.0 7.0 0.00 0.00 0.00 35 1009.4
20260503204214 76 202 3.0 7.0 0.00 0.00 0.00 36 1009.4
20260503203503 75 256 2.0 7.0 0.00 0.00 0.00 33 1009.6
20260503203008 75 311 2.0 7.0 0.00 0.00 0.00 33 1009.6
20260503202713 74 1 2.0 6.0 0.00 0.00 0.00 34 1009.6
20260503202003 74 336 3.0 10.0 0.00 0.00 0.00 31 1009.6
20260503201503 74 314 3.0 10.0 0.00 0.00 0.00 33 1009.8
20260503201003 74 289 3.0 11.0 0.00 0.00 0.00 30 1009.8
20260503200503 74 273 3.0 11.0 0.00 0.00 0.00 29 1009.9
20260503200003 74 285 3.0 10.0 0.00 0.00 0.00 31 1010.0
20260503195503 74 300 3.0 10.0 0.00 0.00 0.00 31 1010.0
20260503195004 73 303 2.0 10.0 0.00 0.00 0.00 37 1010.0
20260503194503 74 293 3.0 10.0 0.00 0.00 0.00 33 1010.1
20260503194213 74 290 3.0 10.0 0.00 0.00 0.00 34 1010.1
20260503193503 73 288 3.0 11.0 0.00 0.00 0.00 33 1010.2
20260503193003 73 319 2.0 9.0 0.00 0.00 0.00 31 1010.2
20260503192504 73 306 3.0 9.0 0.00 0.00 0.00 35 1010.2
20260503192004 73 337 3.0 10.0 0.00 0.00 0.00 33 1010.2
20260503191714 73 13 3.0 10.0 0.00 0.00 0.00 38 1010.2
20260503191003 73 44 3.0 6.0 0.00 0.00 0.00 33 1010.2
20260503190503 73 11 3.0 10.0 0.00 0.00 0.00 34 1010.2
20260503190003 74 315 3.0 10.0 0.00 0.00 0.00 35 1010.2
20260503185503 74 316 2.0 8.0 0.00 0.00 0.00 32 1010.3
20260503185004 73 359 2.0 5.0 0.00 0.00 0.00 36 1010.4
20260503184503 73 22 3.0 10.0 0.00 0.00 0.00 38 1010.3
20260503184003 72 10 3.0 10.0 0.00 0.00 0.00 36 1010.5
20260503183503 72 328 2.0 8.0 0.00 0.00 0.00 34 1010.4
20260503183008 72 310 3.0 8.0 0.00 0.00 0.00 35 1010.5
20260503182503 72 336 3.0 10.0 0.00 0.00 0.00 36 1010.6
20260503182004 71 28 4.0 11.0 0.00 0.00 0.00 33 1010.7
20260503181505 71 29 4.0 11.0 0.00 0.00 0.00 37 1010.7
20260503181004 71 4 3.0 10.0 0.00 0.00 0.00 32 1010.8
20260503180714 71 352 3.0 8.0 0.00 0.00 0.00 37 1010.9
20260503180213 71 4 2.0 7.0 0.00 0.00 0.00 35 1011.0
20260503175503 71 353 3.0 8.0 0.00 0.00 0.00 35 1010.9
20260503175003 71 320 3.0 10.0 0.00 0.00 0.00 33 1011.1
20260503174503 72 293 3.0 10.0 0.00 0.00 0.00 39 1011.0
20260503174003 72 306 2.0 8.0 0.00 0.00 0.00 40 1011.1
20260503173503 72 318 3.0 9.0 0.00 0.00 0.00 38 1011.0
20260503173213 71 332 3.0 9.0 0.00 0.00 0.00 34 1011.1
20260503172504 71 359 2.0 9.0 0.00 0.00 0.00 35 1011.1
20260503172003 71 323 3.0 15.0 0.00 0.00 0.00 36 1011.2
20260503171714 71 312 3.0 15.0 0.00 0.00 0.00 36 1011.2
20260503171003 71 314 3.0 11.0 0.00 0.00 0.00 37 1011.2
20260503170503 70 4 2.0 6.0 0.00 0.00 0.00 40 1011.2
20260503170214 70 9 2.0 6.0 0.00 0.00 0.00 43 1011.2
20260503150503 62 305 2.0 8.0 0.00 0.00 0.00 50 1011.1
20260503140213 58 251 5.0 11.0 0.00 0.00 0.00 52 1010.6
20260503131003 56 231 4.0 11.0 0.00 0.00 0.00 52 1010.0
20260503130503 56 240 5.0 12.0 0.00 0.00 0.00 51 1010.4
20260503120212 52 234 3.0 7.0 0.00 0.00 0.00 55 1010.1
20260503110503 54 220 1.0 3.0 0.00 0.00 0.00 51 1010.1
20260503090504 56 219 5.0 14.0 0.00 0.00 0.00 46 1009.8
20260503081003 54 218 4.0 11.0 0.00 0.00 0.00 50 1010.2
20260503080503 54 218 4.0 9.0 0.00 0.00 0.00 52 1010.2
20260503072503 55 217 3.0 7.0 0.00 0.00 0.00 45 1010.5
20260503072003 55 218 4.0 10.0 0.00 0.00 0.00 45 1010.5
20260503071503 55 215 4.0 10.0 0.00 0.00 0.00 45 1010.5
20260503071004 56 213 4.0 11.0 0.00 0.00 0.00 44 1010.5
20260503070504 56 211 4.0 11.0 0.00 0.00 0.00 44 1010.6
20260503070213 56 210 4.0 10.0 0.00 0.00 0.00 44 1010.7
20260503055003 56 205 5.0 12.0 0.00 0.00 0.00 42 1011.5
20260503054214 56 205 5.0 12.0 0.00 0.00 0.00 42 1011.6
20260503053713 56 206 5.0 11.0 0.00 0.00 0.00 42 1011.6
20260503053003 56 212 5.0 11.0 0.00 0.00 0.00 41 1011.6
20260503052503 56 209 5.0 15.0 0.00 0.00 0.00 41 1011.6
20260503052003 56 210 6.0 15.0 0.00 0.00 0.00 42 1011.6
20260503051503 56 210 5.0 12.0 0.00 0.00 0.00 43 1011.6
20260503051003 56 206 5.0 12.0 0.00 0.00 0.00 43 1011.5
20260503050503 56 208 5.0 13.0 0.00 0.00 0.00 44 1011.6
20260503050005 56 211 6.0 13.0 0.00 0.00 0.00 43 1011.7
20260503045503 56 207 5.0 12.0 0.00 0.00 0.00 43 1011.7
20260503045003 56 205 5.0 12.0 0.00 0.00 0.00 42 1011.8
20260503044503 57 211 5.0 10.0 0.00 0.00 0.00 42 1011.8
20260503044003 57 214 5.0 12.0 0.00 0.00 0.00 41 1011.9
20260503043503 57 205 5.0 12.0 0.00 0.00 0.00 41 1011.9
20260503043003 57 203 5.0 11.0 0.00 0.00 0.00 40 1011.9
20260503042503 58 205 5.0 11.0 0.00 0.00 0.00 41 1012.0
20260503042003 58 194 4.0 11.0 0.00 0.00 0.00 40 1012.1
20260503041503 58 188 4.0 10.0 0.00 0.00 0.00 40 1012.3
20260503041214 58 195 4.0 10.0 0.00 0.00 0.00 39 1012.2
20260503040503 58 198 4.0 11.0 0.00 0.00 0.00 39 1012.4
20260503040003 58 194 4.0 11.0 0.00 0.00 0.00 38 1012.5
20260503035503 58 187 3.0 11.0 0.00 0.00 0.00 39 1012.5
20260503035003 58 182 3.0 7.0 0.00 0.00 0.00 39 1012.6
20260503034712 59 183 4.0 8.0 0.00 0.00 0.00 38 1012.7
20260503034003 59 183 4.0 9.0 0.00 0.00 0.00 37 1012.6
20260503033503 59 176 3.0 9.0 0.00 0.00 0.00 37 1012.8
20260503033008 59 176 4.0 10.0 0.00 0.00 0.00 37 1012.8
20260503032503 59 184 5.0 10.0 0.00 0.00 0.00 37 1012.9
20260503032003 59 182 5.0 12.0 0.00 0.00 0.00 37 1012.9
20260503031503 60 178 4.0 12.0 0.00 0.00 0.00 36 1013.0
20260503031003 60 176 4.0 10.0 0.00 0.00 0.00 36 1013.1
20260503030503 60 178 5.0 9.0 0.00 0.00 0.00 35 1013.1
20260503030003 60 175 4.0 9.0 0.00 0.00 0.00 36 1013.1
20260503025504 60 173 4.0 9.0 0.00 0.00 0.00 35 1013.1
20260503025003 60 174 4.0 9.0 0.00 0.00 0.00 35 1013.1
20260503024714 59 176 3.0 8.0 0.00 0.00 0.00 35 1013.2
20260503024003 59 179 3.0 6.0 0.00 0.00 0.00 37 1013.2
20260503023503 59 177 2.0 6.0 0.00 0.00 0.00 37 1013.3
20260503023008 58 177 1.0 6.0 0.00 0.00 0.00 39 1013.3
20260503022714 58 180 1.0 6.0 0.00 0.00 0.00 38 1013.3
20260503022003 59 187 0.0 3.0 0.00 0.00 0.00 39 1013.5
20260503021714 59 189 1.0 3.0 0.00 0.00 0.00 37 1013.5
20260503021003 59 191 1.0 3.0 0.00 0.00 0.00 38 1013.5
20260503020503 60 192 1.0 3.0 0.00 0.00 0.00 39 1013.6
20260503020003 60 192 1.0 3.0 0.00 0.00 0.00 36 1013.5
20260503015503 60 193 1.0 3.0 0.00 0.00 0.00 38 1013.6
20260503015004 61 194 1.0 3.0 0.00 0.00 0.00 37 1013.7
20260503014714 61 195 1.0 3.0 0.00 0.00 0.00 37 1013.6
20260503014212 62 195 0.0 3.0 0.00 0.00 0.00 35 1013.6
20260503013503 62 0 0.0 0.0 0.00 0.00 0.00 35 1013.6
20260503013212 63 0 0.0 0.0 0.00 0.00 0.00 33 1013.6
20260503012503 63 196 1.0 3.0 0.00 0.00 0.00 35 1013.6
20260503012003 64 195 2.0 5.0 0.00 0.00 0.00 32 1013.7
20260503011503 64 199 3.0 5.0 0.00 0.00 0.00 31 1013.6
20260503011003 65 198 3.0 7.0 0.00 0.00 0.00 31 1013.6
20260503010503 65 194 3.0 7.0 0.00 0.00 0.00 31 1013.7
20260503010212 65 202 2.0 6.0 0.00 0.00 0.00 31 1013.7
20260503005503 65 209 3.0 6.0 0.00 0.00 0.00 31 1013.7
20260503005212 66 204 3.0 6.0 0.00 0.00 0.00 31 1013.7
20260503004503 66 199 3.0 7.0 0.00 0.00 0.00 30 1013.7
20260503004214 66 199 2.0 7.0 0.00 0.00 0.00 30 1013.7
20260503003503 66 194 3.0 10.0 0.00 0.00 0.00 28 1013.7
20260503003003 67 195 3.0 5.0 0.00 0.00 0.00 28 1013.8
20260503002503 67 199 3.0 5.0 0.00 0.00 0.00 28 1013.8
20260503002003 67 205 3.0 10.0 0.00 0.00 0.00 29 1013.8
20260503001503 67 208 5.0 12.0 0.00 0.00 0.00 28 1013.9
20260503001003 67 206 4.0 12.0 0.00 0.00 0.00 27 1014.0
20260503000713 67 213 3.0 10.0 0.00 0.00 0.00 28 1014.0
20260503000003 67 205 3.0 7.0 0.00 0.00 0.00 28 1014.2
20260502235503 68 199 3.0 10.0 0.00 0.00 0.00 27 1014.3
20260502235003 68 204 3.0 10.0 0.00 0.00 0.00 27 1014.5